Regional Weather Roundup
Issued by NWS Albany, NY

Home | Current Version | Previous Version | Graphics & Text | Print | Product List | Glossary On
Versions: 1 2 3 4 5 6 7 8 9 10 11 12 13 14 15 16 17 18 19 20 21 22 23 24 25 26 27 28
000
ASUS41 KALY 220610
RWRALY

NEW YORK STATE HOURLY WEATHER ROUNDUP
NATIONAL WEATHER SERVICE ALBANY NY
200 AM EDT SAT JUL 22 2017

NOTE: "FAIR" INDICATES FEW OR NO CLOUDS BELOW 12,000 FEET WITH NO
SIGNIFICANT WEATHER AND/OR NO OBSTRUCTIONS TO VISIBILITY.

NYZ032-033-038>043-046>054-057>066-NYZ062>081-082-084-220700-
EAST


CITY           SKY/WX    TMP DP  RH WIND       PRES   REMARKS
ALBANY         MOCLDY    69  59  70 CALM      29.90R
GLENS FALLS    PTCLDY    63  59  87 CALM      29.88S
POUGHKEEPSIE   MOCLDY    73  69  87 CALM      29.88S
NEWBURGH       MOCLDY    73  70  88 NW8       29.92R
MONTGOMERY     MOCLDY    74  68  81 N7        29.90R
WHITE PLAINS   PTCLDY    79  70  73 W3        29.87F
ISLIP          PTCLDY    78  73  84 SW5       29.85F
NEW YORK CITY  MOCLDY    84  72  67 NW12      29.85S
CENTRAL PARK   MOCLDY    84  69  60 VRB5      29.90R
$$

NYZ005>009-017-018-044>046-055-056-220700-
CENTRAL


CITY           SKY/WX    TMP DP  RH WIND       PRES   REMARKS
FULTON         CLOUDY    64  61  90 CALM      29.92S
SYRACUSE       CLOUDY    69  59  70 W8        29.92R
ROME           CLOUDY    62  60  93 CALM      29.93R
ELMIRA         CLEAR     65  40  39 SW6       29.96S
BINGHAMTON     CLEAR     67  63  87 NW3       29.98S
$$

NYZ026>034-041>043-087-220700-
NORTH


CITY           SKY/WX    TMP DP  RH WIND       PRES   REMARKS
WATERTOWN      CLOUDY    67  64  90 S5        29.88F
FORT DRUM      NOT AVBL
OGDENSBURG     FAIR      64  63  96 CALM      29.86S
MASSENA        CLEAR     66  64  93 S3        29.87R
SARANAC LAKE   PTCLDY    55  55 100 CALM      29.91S FOG
PLATTSBURGH    MOCLDY    68  61  78 NW6       29.84R
$$

NYZ001>004-010>016-019>021-085-220700-
WEST


CITY           SKY/WX    TMP DP  RH WIND       PRES   REMARKS
NIAGARA FALLS  CLOUDY    71  62  73 CALM      29.94S
BUFFALO        CLOUDY    72  60  66 SE3       29.94F
DUNKIRK        CLOUDY    69  66  90 CALM      29.96F
JAMESTOWN      CLOUDY    64  59  82 CALM      30.01F
WELLSVILLE     CLEAR     64  60  87 CALM      30.04F
ROCHESTER      CLOUDY    67  63  87 SW5       29.95S
PENN YAN       PTCLDY    68  63  84 W3        29.97S
$$

             KEY
       WCI = WIND CHILL INDEX
       VSB = VISIBILITY
       HX  = HEAT INDEX
$$




USA.gov is the U.S. government's official web portal to all federal, state and local government web resources and services.